Location: *
(2.5500°S, 65.9667°W)
Time: 03:09:40
(UTC+00:00)

Okean O Rocket - Pass Details

Date: 01 June 2022
Orbit: 623 x 643 km, 98.2° (Epoch: 04 July)

Event Time Altitude Azimuth Distance (km) Brightness Sun altitude
Exits shadow 23:30:51 21° 156° (SSE) 1,401 3.0 -16.9°
Maximum altitude 23:33:40 67° 78° (ENE) 678 1.5 -17.6°
Drops below altitude 10° 23:37:56 10° 356° (N) 1,983 4.5 -18.6°
Sets 23:40:07 0° 353° (N) 2,885 5.4 -19.1°
